This is the latest recevied weather packets stored in our database for station/object N2WH. If no packets are shown the sender has not sent any weather packets the latest 10 day(s).
| Time | Temp. | Humidity | Pressure | Rain* | Wind** | Luminosity | Snow |
|---|---|---|---|---|---|---|---|
| 1777295964 | 13.89° C | 67% | 1024.8 hPa | 0 mm | - | 246 W/m² | - |
| 1777295662 | 13.89° C | 68% | 1024.7 hPa | 0 mm | - | 114 W/m² | - |
| 1777295359 | 13.89° C | 65% | 1024.6 hPa | 0 mm | - | 72 W/m² | - |
| 1777295057 | 13.89° C | 64% | 1024.5 hPa | 0 mm | - | 86 W/m² | - |
| 1777294753 | 13.33° C | 64% | 1024.5 hPa | 0 mm | - | 57 W/m² | - |
| 1777294448 | 12.78° C | 65% | 1024.7 hPa | 0 mm | - | 76 W/m² | - |
| 1777294146 | 12.78° C | 72% | 1024.6 hPa | 0 mm | - | 43 W/m² | - |
| 1777293843 | 12.78° C | 71% | 1024.5 hPa | 0 mm | - | 57 W/m² | - |
| 1777293537 | 12.78° C | 70% | 1024.5 hPa | 0 mm | - | 74 W/m² | - |
| 1777293233 | 11.67° C | 73% | 1024.5 hPa | 0 mm | - | 129 W/m² | - |
| 1777292932 | 11.11° C | 77% | 1024.3 hPa | 0 mm | - | 107 W/m² | - |
| 1777292628 | 10.56° C | 80% | 1024.2 hPa | 0 mm | - | 60 W/m² | - |
| 1777292324 | 10° C | 82% | 1024.4 hPa | 0 mm | - | 135 W/m² | - |
| 1777292021 | 9.44° C | 82% | 1024.2 hPa | 0 mm | - | 127 W/m² | - |
| 1777291718 | 9.44° C | 82% | 1024.4 hPa | 0 mm | - | 89 W/m² | - |
| 1777291414 | 8.89° C | 85% | 1024.3 hPa | 0 mm | - | 84 W/m² | - |
| 1777291111 | 8.33° C | 88% | 1024.3 hPa | 0 mm | - | 88 W/m² | - |
| 1777290808 | 7.78° C | 88% | 1023.9 hPa | 0 mm | - | 74 W/m² | - |
| 1777290505 | 7.78° C | 90% | 1024.3 hPa | 0 mm | - | 47 W/m² | - |
| 1777290200 | 7.78° C | 92% | 1024 hPa | 0 mm | - | 37 W/m² | - |
| 1777289898 | 6.11° C | 93% | 1024.4 hPa | 0 mm | - | 39 W/m² | - |
* Rain latest hour (hover to see other rain measurements)
** Current wind speed in m/s (hover to see current wind gust speed)